When you browse on this site, cookies collect data to enhance your experience and personalize the content and advertising you see.
Visit our Privacy Policy to learn more. By continuing to use the site, you agree to this use of cookies and data.
  • In Portugal
  • List of Countries
  • For 7 days
  • Water Temperature
  • Satellite Maps
  • Weather Map
  • Weather Widgets
  • user-avatar
    Login

    Hourly Weather Artashat

    Today, 17 January, Thursday

    Time Temperature Precipitation Wind Pressure Humidity
    00:00 -6°C° 0 mm 1 mps 588 mmHg 68%
    01:00 -6°C° 0.1 mm 1 mps 588 mmHg 70%
    02:00 -6°C° 0.1 mm 1 mps 588 mmHg 72%
    03:00 -6°C° 0.1 mm 1 mps 587 mmHg 74%
    04:00 -6°C° 0.2 mm 1 mps 587 mmHg 76%
    05:00 -6°C° 0.2 mm 1 mps 587 mmHg 77%
    06:00 -6°C° 0.2 mm 1 mps 587 mmHg 79%
    07:00 -6°C° 0.1 mm 1 mps 587 mmHg 78%
    08:00 -6°C° 0.1 mm 1 mps 588 mmHg 77%
    09:00 -6°C° 0.1 mm 1 mps 588 mmHg 76%
    10:00 -4°C° 0.1 mm 1 mps 588 mmHg 75%
    11:00 -5°C° 0.1 mm 2 mps 589 mmHg 75%
    12:00 -4°C° 0.1 mm 2 mps 589 mmHg 74%
    13:00 -4°C° 0.2 mm 2 mps 589 mmHg 76%
    14:00 -6°C° 0.2 mm 3 mps 589 mmHg 77%
    15:00 -7°C° 0.2 mm 4 mps 589 mmHg 79%
    16:00 -7°C° 0.4 mm 4 mps 590 mmHg 81%
    17:00 -8°C° 0.4 mm 4 mps 590 mmHg 82%
    18:00 -10°C° 0.4 mm 5 mps 591 mmHg 84%
    19:00 -10°C° 0.2 mm 5 mps 591 mmHg 82%
    20:00 -11°C° 0.2 mm 5 mps 592 mmHg 81%
    21:00 -10°C° 0.2 mm 4 mps 592 mmHg 79%
    22:00 -11°C° 0.1 mm 4 mps 592 mmHg 78%
    23:00 -11°C° 0.1 mm 4 mps 593 mmHg 76%

    Tomorrow, 18 January, Friday

    Time Temperature Precipitation Wind Pressure Humidity
    00:00 -12°C° 0.1 mm 4 mps 593 mmHg 75%
    01:00 -12°C° 0 mm 3 mps 593 mmHg 74%
    02:00 -13°C° 0 mm 3 mps 593 mmHg 73%
    03:00 -13°C° 0 mm 3 mps 594 mmHg 72%
    04:00 -13°C° 0 mm 3 mps 594 mmHg 72%
    05:00 -13°C° 0 mm 3 mps 594 mmHg 71%
    06:00 -13°C° 0 mm 3 mps 595 mmHg 71%
    07:00 -13°C° 0 mm 3 mps 596 mmHg 70%
    08:00 -13°C° 0 mm 3 mps 596 mmHg 69%
    09:00 -12°C° 0 mm 3 mps 597 mmHg 68%
    10:00 -9°C° 0 mm 2 mps 597 mmHg 66%
    11:00 -8°C° 0 mm 2 mps 598 mmHg 64%
    12:00 -7°C° 0 mm 2 mps 598 mmHg 62%
    13:00 -7°C° 0 mm 2 mps 598 mmHg 63%
    14:00 -6°C° 0 mm 1 mps 598 mmHg 63%
    15:00 -6°C° 0 mm 1 mps 598 mmHg 64%
    16:00 -7°C° 0 mm 1 mps 598 mmHg 65%
    17:00 -8°C° 0 mm 1 mps 597 mmHg 67%
    18:00 -10°C° 0 mm 1 mps 597 mmHg 69%
    19:00 -10°C° 0 mm 1 mps 598 mmHg 68%
    20:00 -10°C° 0 mm 1 mps 598 mmHg 67%
    21:00 -11°C° 0 mm 1 mps 598 mmHg 66%
    22:00 -11°C° 0 mm 1 mps 598 mmHg 65%
    23:00 -11°C° 0 mm 1 mps 598 mmHg 64%

    Day after tomorrow, 19 January, Saturday

    Time Temperature Precipitation Wind Pressure Humidity
    00:00 -11°C° 0 mm 1 mps 599 mmHg 64%
    01:00 -11°C° 0 mm 1 mps 598 mmHg 63%
    02:00 -12°C° 0 mm 1 mps 598 mmHg 62%
    03:00 -14°C° 0 mm 2 mps 598 mmHg 62%
    04:00 -14°C° 0 mm 2 mps 598 mmHg 61%
    05:00 -14°C° 0 mm 2 mps 598 mmHg 61%
    06:00 -14°C° 0 mm 2 mps 598 mmHg 60%
    07:00 -12°C° 0 mm 1 mps 598 mmHg 59%
    08:00 -11°C° 0 mm 1 mps 599 mmHg 58%
    09:00 -11°C° 0 mm 1 mps 599 mmHg 56%
    10:00 -9°C° 0 mm 1 mps 599 mmHg 55%
    11:00 -8°C° 0 mm 1 mps 599 mmHg 53%
    12:00 -6°C° 0 mm 0 mps 599 mmHg 51%
    13:00 -6°C° 0 mm 0 mps 599 mmHg 53%
    14:00 -6°C° 0 mm 0 mps 599 mmHg 54%
    15:00 -6°C° 0 mm 0 mps 598 mmHg 55%
    16:00 -7°C° 0 mm 1 mps 598 mmHg 56%
    17:00 -9°C° 0 mm 1 mps 598 mmHg 57%
    18:00 -10°C° 0 mm 1 mps 597 mmHg 58%
    19:00 -11°C° 0 mm 1 mps 597 mmHg 55%
    20:00 -11°C° 0 mm 1 mps 598 mmHg 53%
    21:00 -13°C° 0 mm 2 mps 598 mmHg 50%
    22:00 -13°C° 0 mm 2 mps 598 mmHg 47%
    23:00 -14°C° 0 mm 2 mps 598 mmHg 44%

    20 January, Sunday

    Time Temperature Precipitation Wind Pressure Humidity
    00:00 -14°C° 0 mm 2 mps 597 mmHg 41%
    01:00 -14°C° 0 mm 2 mps 597 mmHg 39%
    02:00 -14°C° 0 mm 2 mps 597 mmHg 38%
    03:00 -14°C° 0 mm 2 mps 597 mmHg 36%
    04:00 -12°C° 0 mm 1 mps 597 mmHg 36%
    05:00 -12°C° 0 mm 1 mps 597 mmHg 36%
    06:00 -12°C° 0 mm 1 mps 597 mmHg 35%
    07:00 -11°C° 0 mm 1 mps 598 mmHg 38%
    08:00 -10°C° 0 mm 1 mps 599 mmHg 40%
    09:00 -9°C° 0 mm 1 mps 599 mmHg 43%
    10:00 -8°C° 0 mm 1 mps 599 mmHg 42%
    11:00 -7°C° 0 mm 1 mps 599 mmHg 41%
    12:00 -6°C° 0 mm 0 mps 599 mmHg 40%
    13:00 -5°C° 0 mm 0 mps 599 mmHg 43%
    14:00 -5°C° 0 mm 0 mps 599 mmHg 46%
    15:00 -5°C° 0 mm 0 mps 598 mmHg 49%
    16:00 -7°C° 0 mm 1 mps 598 mmHg 49%
    17:00 -8°C° 0 mm 1 mps 598 mmHg 50%
    18:00 -10°C° 0 mm 1 mps 598 mmHg 51%
    19:00 -10°C° 0 mm 1 mps 598 mmHg 50%
    20:00 -10°C° 0 mm 1 mps 598 mmHg 49%
    21:00 -10°C° 0 mm 1 mps 598 mmHg 49%
    22:00 -10°C° 0 mm 1 mps 598 mmHg 48%
    23:00 -11°C° 0 mm 1 mps 598 mmHg 48%

    21 January, Monday

    Time Temperature Precipitation Wind Pressure Humidity
    00:00 -11°C° 0 mm 1 mps 598 mmHg 47%
    01:00 -11°C° 0 mm 1 mps 598 mmHg 47%
    02:00 -11°C° 0 mm 1 mps 598 mmHg 47%
    03:00 -11°C° 0 mm 1 mps 598 mmHg 47%
    04:00 -12°C° 0 mm 1 mps 598 mmHg 46%
    05:00 -12°C° 0 mm 1 mps 598 mmHg 46%
    06:00 -12°C° 0 mm 1 mps 597 mmHg 46%
    07:00 -11°C° 0 mm 1 mps 598 mmHg 47%
    08:00 -10°C° 0 mm 1 mps 598 mmHg 47%
    09:00 -10°C° 0 mm 1 mps 599 mmHg 47%
    10:00 -8°C° 0 mm 1 mps 599 mmHg 46%
    11:00 -7°C° 0 mm 1 mps 599 mmHg 46%
    12:00 -6°C° 0 mm 0 mps 599 mmHg 45%
    13:00 -6°C° 0 mm 0 mps 598 mmHg 47%
    14:00 -6°C° 0 mm 0 mps 598 mmHg 50%
    15:00 -6°C° 0 mm 0 mps 598 mmHg 52%
    16:00 -7°C° 0 mm 1 mps 598 mmHg 53%
    17:00 -8°C° 0 mm 1 mps 597 mmHg 54%
    18:00 -10°C° 0 mm 1 mps 597 mmHg 55%
    19:00 -10°C° 0 mm 1 mps 597 mmHg 54%
    20:00 -10°C° 0 mm 1 mps 597 mmHg 54%
    21:00 -13°C° 0 mm 2 mps 597 mmHg 53%
    22:00 -13°C° 0 mm 2 mps 597 mmHg 52%
    23:00 -13°C° 0 mm 2 mps 597 mmHg 52%

    22 January, Tuesday

    Time Temperature Precipitation Wind Pressure Humidity
    00:00 -13°C° 0 mm 2 mps 597 mmHg 51%
    01:00 -13°C° 0 mm 2 mps 597 mmHg 51%
    02:00 -14°C° 0 mm 2 mps 597 mmHg 51%
    03:00 -14°C° 0 mm 2 mps 597 mmHg 51%
    04:00 -14°C° 0 mm 2 mps 597 mmHg 51%
    05:00 -14°C° 0 mm 2 mps 597 mmHg 51%
    06:00 -14°C° 0 mm 2 mps 597 mmHg 51%
    07:00 -13°C° 0 mm 2 mps 597 mmHg 51%
    08:00 -12°C° 0 mm 2 mps 598 mmHg 50%
    09:00 -12°C° 0 mm 2 mps 598 mmHg 50%
    10:00 -8°C° 0 mm 1 mps 598 mmHg 49%
    11:00 -7°C° 0 mm 1 mps 598 mmHg 47%
    12:00 -4°C° 0 mm 1 mps 598 mmHg 46%
    13:00 -4°C° 0 mm 1 mps 598 mmHg 47%
    14:00 -4°C° 0 mm 1 mps 598 mmHg 48%
    15:00 -4°C° 0 mm 0 mps 598 mmHg 49%
    16:00 -6°C° 0 mm 1 mps 598 mmHg 50%
    17:00 -7°C° 0 mm 1 mps 598 mmHg 51%
    18:00 -9°C° 0 mm 1 mps 597 mmHg 52%
    19:00 -9°C° 0 mm 1 mps 598 mmHg 52%
    20:00 -9°C° 0 mm 1 mps 598 mmHg 51%
    21:00 -12°C° 0 mm 2 mps 598 mmHg 51%
    22:00 -12°C° 0 mm 2 mps 598 mmHg 50%
    23:00 -12°C° 0 mm 2 mps 598 mmHg 50%
    Show more